Find Starlink 6037

NORAD ID: 56461 Int'l Des: 2023-064 Owner: SPXS Country: US Constellation: starlink operational
LEOCIRCULAR

リアルタイム位置

3D地球を読み込み中...

Starlink 6037について

説明を読み込み中...

次回通過

Passes for default location (London). Set your location on the main map for personalized predictions.

高度履歴

Loading altitude history...

軌道要素

1 56461U 23064P 26125.79406536 -.00004265 00000-0 -34978-3 0 9996
2 56461 70.0000 0.3179 0002918 271.2681 88.8144 14.98338708163800
Epoch: May 5, 2026 • Age: 12 hours

現在のステータス

高度 584.7 km
速度 7.57 km/s
衛星直下点 -38.10°S, 137.47°W
打ち上げ日 May 10, 2023
運用期間 2.9 years
タイプ internet

技術仕様

分類 Payload
質量 305.00 kg
乾燥質量 290.00 kg
総質量 305.00 kg
長さ 0.20 m
直径 2.80 m
スパン 9.00 m
形状 Box + pan
製造者 SPXS
バスタイプ Starlink
フェーズステータス In Orbit
所有者/国 SPXS/US

Most Searched